Regional Weather Roundup
Issued by NWS

Home | Current Version | Previous Version | Graphics & Text | Print | Product List | Glossary Off
Versions: 1 2 3 4 5 6 7 8 9 10 11 12 13 14 15 16 17 18 19 20 21 22 23 24 25 26 27 28 29 30 31 32 33 34 35 36 37 38 39 40 41 42 43 44 45 46 47 48 49 50

000
ASUS43 KTOP 200508
RWRKS

WEATHER ROUNDUP FOR KANSAS
NATIONAL WEATHER SERVICE GOODLAND KS
1200 AM CDT FRI APR 20 2018

NOTE:  "FAIR" INDICATES FEW OR NO CLOUDS BELOW 12,000 FEET WITH NO
SIGNIFICANT WEATHER AND/OR OBSTRUCTIONS TO VISIBILITY.

KSZ001>006-013>018-027>032-041>047-200600-
NORTHWEST KANSAS

CITY           SKY/WX    TMP DP  RH WIND       PRES   REMARKS
GOODLAND       CLOUDY    45  25  45 SE18G35   30.17S
HAYS           CLOUDY    39  26  59 E10       30.31F WCI  32
HILL CITY      CLOUDY    40  27  59 E10       30.29F WCI  33
RUSSELL        CLOUDY    42  28  57 SE7       30.31R
$$

KSZ061>065-074>080-084>089-200600-
SOUTHWEST KANSAS

CITY           SKY/WX    TMP DP  RH WIND       PRES   REMARKS
DODGE CITY     CLOUDY    43  26  51 SE13      30.27S
ELKHART        MOCLDY    53  30  42 SE15      30.17F
GARDEN CITY    CLOUDY    45  26  47 SE17      30.22F
GREAT BEND     CLOUDY    41  28  60 SE8       30.32S
LIBERAL        CLOUDY    50  27  40 SE17      30.22F
PRATT          CLEAR     43  26  52 SE5       30.31S
$$

KSZ066>073-081>083-090>101-200600-
SOUTHEAST KANSAS

CITY           SKY/WX    TMP DP  RH WIND       PRES   REMARKS
CHANUTE        CLOUDY    44  32  62 E5        30.39S
COFFEYVILLE    CLEAR     39  32  76 NE6       30.37F
HUTCHINSON     CLEAR     46  29  51 E13       30.33F
MEDICINE LODGE   N/A     46  29  51 E7        30.30F
NEWTON         CLOUDY    42  28  57 E7        30.35F
PARSONS        CLEAR     38  31  76 CALM      30.39S
WICHITA INTL   CLOUDY    47  29  49 E9        30.33F
WICHITA JABRA  CLOUDY    41  28  60 E6        30.34F
WICHITA MCCONL CLOUDY    46  27  47 SE7       30.34F
WINFIELD       CLOUDY    46  30  53 E8        30.35F
$$

KSZ007>012-019>026-033>040-048>060-102>105-200600-
NORTHEAST KANSAS

CITY           SKY/WX    TMP DP  RH WIND       PRES   REMARKS
CONCORDIA      CLOUDY    39  25  57 SE7       30.36R
EMPORIA        CLOUDY    42  30  62 SE7       30.37S
LAWRENCE       PTCLDY    37  31  78 E6        30.40S
MANHATTAN      CLEAR     41  27  57 CALM      30.38R
MARYSVILLE     CLEAR     37  28  70 SE6       30.38S
OLATHE IND     PTCLDY    45  30  55 E5        30.41R
OLATHE EXE     PTCLDY    45  30  55 SE5       30.40S
SALINA         CLOUDY    45  28  51 SE7       30.35S
TOPEKA BILLARD CLOUDY    42  33  70 E5        30.39S
TOPEKA FORBES  CLOUDY    43  30  60 E6        30.38F
$$




USA.gov is the U.S. government's official web portal to all federal, state and local government web resources and services.